EW7772 Weather Reports


time (UTC)temp
F
wind
direction
speed
knots
gust
knots
rain 1hr
in
rain 24hr
in
rain mn
in
humidity
%
barometer
mb
20260504210059 61 281 0.0 0.0 0.00 0.00 0.00 67 1012.4
20260504204547 61 281 0.0 0.0 0.00 0.00 0.00 66 1012.4
20260504203044 62 281 0.0 0.0 0.00 0.00 0.00 64 1012.5
20260504201545 63 281 0.0 0.0 0.00 0.00 0.00 62 1012.6
20260504200038 63 281 0.0 0.0 0.00 0.00 0.00 58 1012.6
20260504194558 63 281 0.0 1.7 0.00 0.00 0.00 58 1012.3
20260504193037 64 283 0.0 1.7 0.00 0.00 0.00 57 1012.3
20260504191545 64 282 0.0 1.7 0.00 0.00 0.00 56 1012.2
20260504190044 64 282 0.0 0.9 0.00 0.00 0.00 55 1011.9
20260504184540 65 282 0.0 1.7 0.00 0.00 0.00 54 1011.8
20260504183034 65 277 0.0 0.9 0.00 0.00 0.00 53 1011.7
20260504181550 66 261 0.0 2.6 0.00 0.00 0.00 52 1011.6
20260504180055 67 277 0.9 4.3 0.00 0.00 0.00 52 1011.5
20260504174534 67 273 0.0 3.5 0.00 0.00 0.00 51 1011.3
20260504173037 67 250 0.0 2.6 0.00 0.00 0.00 50 1011.1
20260504171533 68 290 0.0 0.9 0.00 0.00 0.00 48 1010.9
20260504081537 65 184 0.0 1.7 0.00 0.00 0.00 52 1014.3
20260504050014 52 5 0.0 0.9 0.00 0.00 0.00 73 1014.6
20260504044514 52 360 0.0 0.9 0.00 0.00 0.00 74 1014.5
20260504043013 52 360 0.0 0.9 0.00 0.00 0.00 73 1014.5
20260504041511 52 360 0.0 0.0 0.00 0.00 0.00 72 1014.4
20260504040011 52 360 0.0 0.0 0.00 0.00 0.00 71 1014.3
20260504034508 53 360 0.0 0.0 0.00 0.00 0.00 69 1014.4
20260504033008 53 360 0.0 0.9 0.00 0.00 0.00 69 1014.4
20260504031508 53 360 0.0 0.0 0.00 0.00 0.00 69 1014.4
20260504030007 53 360 0.0 0.9 0.00 0.00 0.00 68 1014.3
20260504024508 53 360 0.0 0.0 0.00 0.00 0.00 68 1014.4
20260504023006 54 360 0.0 0.9 0.00 0.00 0.00 67 1014.4
20260504021506 54 271 0.0 0.9 0.00 0.00 0.00 67 1014.4
20260504020006 54 271 0.0 1.7 0.00 0.00 0.00 66 1014.4
20260504014515 54 271 0.0 0.0 0.00 0.00 0.00 68 1014.4
20260504013006 54 271 0.0 0.0 0.00 0.00 0.00 68 1014.4
20260504011504 54 271 0.0 0.9 0.00 0.00 0.00 67 1014.4
20260504010004 53 271 0.0 0.0 0.00 0.00 0.00 69 1014.3
20260504004502 53 271 0.0 0.9 0.00 0.00 0.00 69 1014.4
20260504003001 53 271 0.0 0.0 0.00 0.00 0.00 70 1014.6
20260504001612 53 271 0.0 0.0 0.00 0.00 0.00 71 1014.6
20260504000106 53 271 0.0 0.0 0.00 0.00 0.00 70 1014.8
20260503234555 54 271 0.0 0.0 0.00 0.00 0.00 68 1014.9
20260503233053 54 271 0.0 0.0 0.00 0.00 0.00 68 1014.9
20260503231554 55 271 0.0 0.0 0.00 0.00 0.00 68 1015.1
20260503230049 55 271 0.0 0.0 0.00 0.00 0.00 65 1015.0
20260503224550 56 271 0.0 0.0 0.00 0.00 0.00 63 1015.1
20260503223045 57 271 0.0 0.0 0.00 0.00 0.00 61 1015.2
20260503221541 57 271 0.0 0.0 0.00 0.00 0.00 60 1015.0
20260503220040 58 271 0.0 0.0 0.00 0.00 0.00 57 1014.9
20260503214544 59 271 0.0 0.0 0.00 0.00 0.00 54 1014.9
20260503213052 60 271 0.0 0.0 0.00 0.00 0.00 53 1014.9
20260503211556 60 271 0.0 0.0 0.00 0.00 0.00 51 1014.8